RH
8 9 10 12 13 13 14 13 12 12 10 10 9 9 9 7 6 6 5 6 5 5 5 5 5 5 7 6 8 12 20 12 5 21 10 11 5 6 8 12 15 15 12 11 13
11 15 20 21 18 16 14 12 12 11 11 10 8 7 6 6 5 4 5 6 6 6 6 6 8 9 9 9 10 21 26 5 13 21 25 12 11 10 9 10 14 16 15 11 12
18 25 27 22 18 16 14 14 12 10 9 7 7 5 4 3 3 5 6 5 3 3 3 4 5 8 11 18 29 42 20 9 19 27 26 21 23 11 10 8 8 15 16 13 12
29 30 23 22 20 16 12 11 10 9 7 5 4 3 3 3 4 4 3 4 6 7 7 10 17 36 87 98 75 93 39 45 31 42 49 52 39 23 13 6 8 10 14 16 15
31 27 24 22 15 12 12 12 9 6 4 4 3 3 2 2 4 5 8 12 17 21 28 29 33 44 37 89 100 100 96 100 100 100 85 76 67 60 17 13 11 11 16 21 19
28 25 21 16 15 15 12 8 5 4 3 3 2 2 2 3 5 9 17 22 23 25 29 36 38 41 51 62 90 99 97 99 99 100 98 100 96 90 8 16 16 14 11 26 31
26 20 18 20 20 11 7 5 4 3 3 2 2 1 2 9 15 17 19 26 34 34 32 33 33 35 36 38 45 70 81 92 95 95 98 99 97 96 36 38 28 20 16 12 32
24 21 23 24 15 7 5 4 3 3 2 2 2 3 10 14 15 23 27 21 18 20 21 21 18 22 18 33 34 36 63 90 50 88 93 90 80 55 77 62 35 27 18 13 12
23 23 23 18 9 5 4 3 3 2 2 2 7 13 19 13 15 7 7 13 15 15 15 16 16 16 21 44 68 62 92 95 81 91 68 86 94 75 62 89 68 36 30 20 14
24 24 21 11 6 5 4 3 2 2 2 7 21 14 12 8 14 39 28 24 21 20 18 17 16 22 44 44 81 78 66 45 50 66 89 89 79 98 91 98 72 50 57 23 18
27 25 13 7 5 4 3 2 1 3 3 18 12 14 14 12 11 27 24 26 22 19 27 26 22 34 56 48 40 74 79 69 22 19 23 41 73 63 79 96 98 87 72 52 18
31 18 8 6 4 4 2 1 1 3 13 18 7 8 9 9 17 23 29 28 30 26 30 45 26 47 60 45 65 63 96 52 33 14 55 63 58 46 57 77 93 87 77 69 51
25 11 7 5 4 3 2 1 2 4 21 15 7 9 9 13 22 25 26 25 26 28 62 78 52 63 63 83 79 73 94 72 84 65 96 72 72 35 42 56 51 92 85 86 65
17 8 6 5 4 2 2 1 3 9 33 16 9 13 11 12 18 24 35 34 33 46 86 72 54 62 71 60 84 97 55 93 96 100 93 80 84 63 34 34 44 47 93 77 66
11 8 6 4 3 2 2 2 4 16 36 15 12 14 14 18 35 26 37 35 39 59 75 41 66 54 55 58 87 70 74 91 97 98 100 78 99 69 51 57 34 32 41 86 75
10 8 6 4 2 2 1 2 5 10 26 14 13 11 15 22 29 34 36 39 51 58 64 74 47 52 62 60 72 94 89 97 95 100 92 66 82 60 45 50 35 32 32 53 89
9 7 5 3 2 2 2 3 5 6 14 17 17 15 31 26 30 40 48 51 81 90 75 52 42 55 62 79 75 95 90 93 88 98 90 57 83 55 38 36 30 46 28 29 52
9 7 4 3 2 2 2 4 4 19 23 18 27 21 24 53 31 34 44 61 80 99 95 91 75 80 94 99 95 84 98 96 93 70 57 67 84 74 55 29 29 21 72 42 33
9 6 4 3 2 2 3 5 12 23 36 37 28 34 26 30 42 51 49 68 71 91 100 98 74 70 95 93 98 91 96 80 97 82 92 62 69 58 71 64 52 41 36 77 40
9 6 4 3 3 2 4 15 25 34 42 43 49 48 58 46 41 47 51 58 75 88 99 97 94 53 66 76 86 100 98 92 79 96 86 58 95 95 92 98 66 54 38 47 57
9 5 4 3 3 2 6 21 38 51 58 50 58 50 59 78 56 55 52 56 72 82 92 100 98 53 62 79 98 96 98 96 98 98 91 84 94 98 96 99 90 55 38 39 56
8 5 4 3 4 3 7 16 36 39 52 60 65 63 72 77 59 55 50 60 63 81 86 100 100 96 61 79 100 92 99 100 95 93 93 94 89 94 98 96 100 69 29 39 41
7 5 3 4 4 5 8 13 22 36 42 59 70 89 63 59 87 50 46 35 58 74 95 97 96 95 62 67 89 96 96 86 92 98 96 95 88 96 97 96 97 100 48 69 55
6 4 3 4 4 6 8 11 17 28 47 43 49 70 78 34 44 42 46 35 46 66 83 80 91 98 97 97 100 100 93 93 99 97 97 98 97 95 94 96 98 97 98 98 69
5 3 3 3 4 8 11 12 18 21 35 37 45 48 50 59 49 42 41 40 31 56 69 77 84 96 97 97 97 97 97 94 98 98 98 98 98 96 98 97 97 99 99 92 64
5 3 3 3 3 8 15 18 25 23 29 38 35 26 32 60 75 53 64 49 40 51 65 68 83 72 81 96 98 96 95 96 99 99 97 98 97 98 96 97 94 98 100 92 83
4 3 3 4 4 12 20 22 27 35 31 41 35 32 49 53 52 48 52 41 51 68 64 63 76 87 84 95 89 87 98 96 98 99 98 99 98 97 95 96 96 96 99 100 100
Wind_Speed
23 23 23 24 24 25 26 26 27 27 27 29 31 32 33 34 38 37 39 40 40 39 34 37 37 35 37 41 40 40 47 65 73 56 59 33 37 38 33 39 34 38 35 33 28
23 24 25 26 26 26 27 27 27 28 28 29 31 33 34 36 39 40 43 43 41 39 35 34 30 33 39 46 48 48 54 73 57 38 49 50 48 44 39 34 32 39 36 29 28
25 26 27 26 26 27 28 29 30 30 30 31 32 33 35 36 42 42 40 38 39 41 42 39 39 35 38 38 48 50 68 64 57 33 42 50 45 37 43 42 40 34 29 30 28
26 27 26 26 27 28 30 31 32 34 33 32 35 35 37 39 32 39 47 48 47 46 43 43 42 38 32 32 37 47 60 60 64 53 46 32 36 40 48 47 36 32 32 28 28
27 27 27 28 29 30 32 33 35 36 36 35 38 39 39 38 36 40 43 44 45 45 41 38 38 38 40 36 35 42 50 53 54 42 50 53 47 42 57 51 43 39 30 29 35
28 28 28 28 30 32 34 35 35 36 38 39 41 42 39 36 40 41 37 38 39 41 41 39 39 35 40 41 42 43 42 41 48 52 50 44 46 51 65 53 51 47 42 36 34
29 28 28 29 31 33 35 35 35 37 39 40 41 43 40 30 28 32 35 37 38 39 39 32 30 28 30 36 34 37 51 54 51 47 44 36 55 63 58 53 54 54 48 44 36
30 30 28 28 31 32 35 35 36 40 41 39 41 39 27 20 29 35 37 36 38 36 35 34 26 23 27 29 33 33 36 43 53 35 27 36 60 63 47 54 57 54 51 49 46
30 32 32 32 31 32 34 38 40 39 38 40 33 22 9 28 29 34 37 31 29 25 23 23 23 19 18 21 25 23 23 23 35 31 46 41 39 43 49 37 33 52 54 50 48
32 34 37 37 35 32 34 38 39 39 35 30 18 15 27 34 35 24 27 26 27 27 24 21 22 23 10 18 13 20 30 32 31 29 22 37 52 43 17 27 40 37 40 54 51
32 35 37 39 40 40 35 35 35 36 38 16 25 33 32 34 30 26 31 31 27 25 28 25 26 14 18 20 29 29 31 35 34 34 35 46 41 54 46 36 29 28 25 29 53
32 33 35 37 39 41 44 41 39 32 20 14 26 27 29 32 20 26 29 32 32 31 26 24 20 23 23 31 34 33 29 38 40 35 27 29 39 49 47 50 37 37 35 34 34
32 33 33 35 37 39 40 40 38 28 7 12 30 29 34 34 18 30 33 33 32 31 23 24 24 28 35 34 28 23 26 29 31 29 27 31 39 45 50 41 50 42 40 38 35
34 35 36 37 35 36 36 35 30 22 3 14 31 27 32 34 21 30 31 28 26 29 25 20 36 34 29 20 16 25 22 22 25 28 14 13 9 19 37 52 42 50 42 49 40
35 37 38 41 39 37 37 34 22 14 4 19 26 23 27 31 33 37 28 26 25 24 22 37 34 24 16 16 20 32 31 33 34 34 31 33 13 21 21 26 45 50 49 42 48
35 36 35 35 36 35 35 30 17 8 3 12 19 25 31 34 34 32 33 33 23 35 30 34 14 11 19 22 28 26 30 33 27 21 11 41 21 17 31 25 31 36 47 40 40
37 38 36 36 32 33 33 26 9 7 17 15 24 25 25 36 36 31 32 35 33 34 44 36 23 22 12 30 24 22 27 5 5 2 6 16 17 30 23 26 36 23 43 38 29
36 37 37 36 34 33 31 22 6 12 10 17 24 20 25 33 32 32 29 33 34 31 30 22 23 29 26 22 24 23 22 9 6 4 12 17 7 2 17 21 18 34 20 34 39
35 36 33 32 32 33 28 12 7 9 13 18 20 17 24 31 29 30 27 20 31 34 23 15 18 23 22 16 15 25 25 18 10 17 7 7 7 11 9 15 32 29 38 20 35
35 35 32 32 32 32 25 13 11 10 14 13 14 15 20 29 29 29 26 17 29 32 34 22 20 14 27 13 25 28 19 17 11 4 6 7 6 17 30 9 21 34 31 28 30
35 34 33 30 32 30 28 15 11 11 13 13 13 16 20 26 27 24 22 18 31 32 30 22 14 28 24 15 25 27 30 22 11 7 3 5 5 31 36 21 7 20 35 31 30
33 30 31 28 27 34 24 17 13 10 11 9 10 13 17 25 21 15 23 20 27 26 31 18 12 19 24 10 12 38 35 38 2 4 8 8 3 32 42 30 9 5 24 24 34
33 28 32 30 27 29 22 17 15 14 12 12 11 11 18 21 14 22 25 23 20 23 29 34 11 16 14 9 17 30 36 38 17 12 9 6 12 44 39 38 28 13 19 25 31
33 28 31 30 29 27 23 20 16 12 6 13 10 12 21 21 20 18 28 26 18 21 26 27 17 12 11 24 23 38 36 29 39 11 21 11 37 42 42 38 39 32 22 24 24
31 28 29 25 26 24 22 20 19 18 12 11 8 15 20 23 25 18 28 28 16 20 26 30 13 24 13 10 3 20 45 31 30 33 18 31 22 41 36 41 35 31 28 22 18
29 29 28 24 25 21 21 21 16 19 13 14 16 16 19 24 24 30 27 22 21 22 25 31 20 26 10 15 8 10 47 35 26 42 46 35 34 37 20 32 33 37 32 26 22
29 28 27 26 25 21 20 20 17 19 13 16 18 21 19 21 23 22 20 13 14 17 24 30 30 22 7 18 3 9 46 38 22 19 47 45 39 35 17 22 34 37 41 34 27
Wind_Direction
349 346 341 337 333 329 325 321 318 317 315 313 312 310 307 305 303 300 297 295 294 291 287 282 278 265 255 251 246 240 238 249 253 252 252 261 254 261 258 251 242 247 251 254 248
346 343 339 335 333 329 322 321 320 318 318 314 313 312 311 307 303 302 298 297 293 290 287 282 275 265 256 249 243 231 236 251 249 260 261 260 257 261 257 255 243 242 248 244 238
343 341 336 333 331 326 322 324 322 321 323 321 317 314 311 308 305 298 299 297 291 286 283 279 275 268 262 253 243 239 244 254 246 264 258 256 253 246 252 249 245 243 245 241 232
342 339 336 334 330 329 327 327 325 324 324 323 319 317 314 308 300 302 297 292 287 284 278 275 272 268 267 258 258 243 249 252 251 250 247 244 248 238 246 247 247 242 238 234 229
338 337 337 337 334 333 329 328 326 328 326 327 320 317 312 307 298 293 290 290 291 292 291 285 282 281 273 257 254 246 254 252 251 258 253 250 248 245 245 244 241 234 236 224 215
341 339 340 338 336 333 331 330 330 328 327 325 320 318 313 305 301 298 298 294 294 296 296 295 292 286 276 270 250 255 247 252 252 252 247 251 253 247 248 245 240 236 230 224 217
340 340 342 340 338 335 331 330 332 328 327 325 322 318 312 313 306 309 312 317 317 311 309 308 303 296 296 288 278 268 266 261 253 252 258 256 256 242 245 243 244 235 232 229 216
341 338 341 339 338 337 333 331 332 330 331 326 320 317 318 325 327 317 311 309 307 308 310 311 316 298 289 282 277 274 266 268 258 271 271 255 257 249 259 251 242 241 233 227 220
338 338 340 341 343 341 336 334 335 334 330 327 324 331 351 331 314 312 315 323 331 331 333 327 317 318 306 290 286 280 275 281 274 263 257 262 262 272 263 251 247 245 239 230 222
342 342 341 341 342 344 341 337 338 333 333 333 350 354 328 340 350 348 342 344 346 345 341 337 339 329 331 328 321 312 312 305 293 279 253 247 251 254 230 227 238 252 248 234 222
344 343 342 341 341 342 344 342 339 332 336 360 3 2 354 348 351 342 347 345 344 344 341 337 335 344 323 317 314 304 298 295 294 291 295 274 262 251 255 229 220 220 233 226 225
344 344 344 343 344 343 344 345 346 340 346 18 7 360 356 355 358 351 345 342 342 339 339 328 327 335 314 315 310 302 296 291 290 283 292 285 277 258 257 250 237 221 224 226 224
346 344 346 347 346 344 345 346 346 342 350 9 3 2 1 360 359 355 343 337 337 332 336 319 319 317 318 314 318 309 297 297 287 296 303 286 279 260 248 256 250 238 213 213 210
345 347 348 348 345 348 348 348 349 349 359 8 7 5 2 5 357 359 347 344 346 333 334 318 327 314 317 316 321 306 318 298 284 301 295 287 293 276 263 250 250 245 232 217 210
349 348 349 347 348 350 352 353 352 1 16 350 357 1 9 19 358 9 6 3 352 349 331 327 328 326 314 321 311 304 308 297 290 281 283 281 265 279 267 253 245 243 242 219 220
348 349 349 348 348 351 353 356 357 359 341 352 353 359 8 16 12 9 17 13 1 350 347 342 18 355 319 312 308 300 315 309 284 266 263 262 227 262 246 236 239 238 235 236 212
347 348 347 349 353 354 358 357 360 50 334 343 351 3 9 7 11 15 11 18 9 350 349 360 2 348 346 333 353 343 345 321 351 190 242 308 211 242 243 234 223 218 227 231 226
345 347 347 351 353 356 0 360 22 336 348 348 350 5 6 1 11 13 13 13 11 358 343 341 331 347 351 342 333 354 348 314 303 302 290 284 223 327 261 230 229 220 215 210 217
344 347 348 351 353 360 3 17 18 352 345 341 355 356 1 1 1 358 5 4 5 4 356 328 320 355 5 7 350 347 354 342 285 279 256 249 322 235 285 253 227 220 224 199 201
345 347 349 353 356 4 3 34 19 0 353 351 358 355 345 353 356 356 0 357 353 357 347 336 303 354 353 350 356 349 346 336 330 299 311 316 69 13 1 340 230 218 207 205 197
347 349 352 353 357 358 21 23 6 346 342 346 346 345 348 346 348 345 345 358 354 351 352 348 312 327 356 347 357 5 355 351 290 260 295 311 89 4 4 22 281 230 200 194 186
348 350 352 356 358 8 14 10 356 343 335 334 336 349 347 344 336 340 337 346 356 351 351 350 306 302 332 13 355 6 11 0 308 334 337 272 323 6 21 44 53 206 204 188 191
351 353 355 359 3 9 8 1 349 340 337 340 339 332 345 340 330 330 342 358 0 352 1 343 310 316 339 349 331 7 12 16 18 341 351 346 318 6 27 72 89 117 173 180 171
353 355 354 356 1 0 3 1 358 351 347 335 335 336 336 345 341 323 333 344 354 0 359 348 331 313 281 304 322 16 14 19 21 8 332 348 330 8 32 42 86 111 153 164 156
356 356 357 352 357 357 359 360 354 358 8 355 358 346 341 330 334 329 337 336 353 352 359 357 329 332 334 9 279 11 14 19 21 22 12 337 354 3 27 32 62 103 117 162 153
352 355 354 354 355 356 356 359 0 348 350 348 341 346 343 332 327 325 327 336 326 343 353 359 332 344 359 7 351 355 8 12 8 12 14 14 7 9 37 37 68 89 126 155 148
349 351 354 355 354 356 356 355 354 345 355 344 337 336 348 341 332 329 314 320 314 335 348 351 346 343 304 354 12 357 3 4 5 3 7 7 2 10 12 30 34 70 111 122 129